| time (UTC) | temp C | wind direction | speed KPH | gust KPH | rain 1hr cm | rain 24hr cm | rain mn cm | humidity % | barometer mb |
| 20260510164505 | 18 | 35 | 0.0 | 0.0 | 0.00 | 1.30 | 0.89 | 54 | 991.0 |
| 20260510164005 | 18 | 15 | 0.0 | 0.0 | 0.00 | 1.30 | 0.89 | 57 | 991.0 |
| 20260510163505 | 18 | 15 | 0.0 | 0.0 | 0.00 | 1.30 | 0.89 | 58 | 991.0 |
| 20260510163005 | 18 | 27 | 0.0 | 0.0 | 0.00 | 1.30 | 0.89 | 58 | 991.0 |
| 20260510162505 | 18 | 318 | 0.0 | 0.0 | 0.00 | 1.30 | 0.89 | 53 | 991.0 |
| 20260510162005 | 18 | 319 | 0.0 | 0.0 | 0.00 | 1.30 | 0.89 | 48 | 991.0 |
| 20260510161505 | 18 | 318 | 0.0 | 0.0 | 0.00 | 1.30 | 0.89 | 47 | 991.0 |
| 20260510161005 | 18 | 319 | 0.0 | 0.0 | 0.00 | 1.30 | 0.89 | 45 | 991.0 |
| 20260510160505 | 19 | 319 | 0.0 | 0.0 | 0.00 | 1.30 | 0.89 | 44 | 991.0 |
| 20260510160005 | 20 | 319 | 0.0 | 0.0 | 0.00 | 1.30 | 0.89 | 43 | 991.0 |
| 20260510155505 | 20 | 319 | 0.0 | 0.0 | 0.00 | 1.30 | 0.89 | 40 | 991.0 |
| 20260510155005 | 20 | 318 | 0.0 | 0.0 | 0.00 | 1.30 | 0.89 | 38 | 991.0 |
| 20260510154505 | 21 | 318 | 0.0 | 3.2 | 0.00 | 1.30 | 0.89 | 36 | 991.0 |
| 20260510154005 | 21 | 308 | 0.0 | 4.8 | 0.00 | 1.30 | 0.89 | 35 | 991.0 |
| 20260510153505 | 21 | 337 | 0.0 | 0.0 | 0.00 | 1.30 | 0.89 | 39 | 991.0 |
| 20260510153005 | 20 | 337 | 0.0 | 0.0 | 0.00 | 1.30 | 0.89 | 42 | 991.0 |
| 20260510152505 | 20 | 338 | 0.0 | 0.0 | 0.00 | 1.30 | 0.89 | 43 | 991.0 |
| 20260510152005 | 20 | 338 | 0.0 | 0.0 | 0.00 | 1.30 | 0.89 | 42 | 991.0 |
| 20260510151505 | 20 | 338 | 0.0 | 0.0 | 0.00 | 1.30 | 0.89 | 40 | 991.0 |
| 20260510151005 | 20 | 337 | 0.0 | 0.0 | 0.00 | 1.30 | 0.89 | 39 | 991.0 |
| 20260510150505 | 20 | 337 | 0.0 | 0.0 | 0.00 | 1.30 | 0.89 | 40 | 991.0 |
| 20260510150005 | 20 | 337 | 0.0 | 0.0 | 0.00 | 1.30 | 0.89 | 41 | 991.0 |
| 20260510145505 | 20 | 337 | 0.0 | 0.0 | 0.00 | 1.30 | 0.89 | 41 | 991.0 |
| 20260510145005 | 20 | 337 | 0.0 | 0.0 | 0.00 | 1.30 | 0.89 | 43 | 991.0 |
| 20260510144505 | 18 | 337 | 0.0 | 4.8 | 0.00 | 1.30 | 0.89 | 43 | 991.0 |
| 20260510144005 | 19 | 337 | 0.0 | 4.8 | 0.00 | 1.30 | 0.89 | 40 | 991.0 |
| 20260510143505 | 19 | 337 | 0.0 | 0.0 | 0.00 | 1.30 | 0.89 | 40 | 991.0 |
| 20260510143005 | 20 | 337 | 0.0 | 0.0 | 0.00 | 1.30 | 0.89 | 40 | 991.0 |
| 20260510142505 | 20 | 338 | 0.0 | 0.0 | 0.00 | 1.30 | 0.89 | 43 | 992.0 |
| 20260510142005 | 20 | 337 | 0.0 | 0.0 | 0.00 | 1.30 | 0.89 | 43 | 992.0 |
| 20260510141505 | 20 | 337 | 0.0 | 0.0 | 0.00 | 1.30 | 0.89 | 45 | 992.0 |
| 20260510141005 | 20 | 337 | 0.0 | 0.0 | 0.00 | 1.30 | 0.89 | 47 | 1042.0 |
| 20260510140505 | 19 | 337 | 0.0 | 0.0 | 0.00 | 1.30 | 0.89 | 48 | 1042.0 |
| 20260510140005 | 19 | 338 | 0.0 | 0.0 | 0.00 | 1.30 | 0.89 | 49 | 1042.0 |
| 20260510135504 | 18 | 337 | 0.0 | 0.0 | 0.00 | 1.30 | 0.89 | 50 | 992.0 |
| 20260510135005 | 19 | 338 | 0.0 | 0.0 | 0.00 | 1.30 | 0.89 | 51 | 992.0 |
| 20260510134505 | 18 | 337 | 0.0 | 0.0 | 0.00 | 1.30 | 0.89 | 50 | 992.0 |
| 20260510134005 | 18 | 338 | 0.0 | 0.0 | 0.00 | 1.30 | 0.89 | 56 | 992.0 |
| 20260510133505 | 18 | 337 | 0.0 | 0.0 | 0.00 | 1.30 | 0.89 | 65 | 992.0 |
| 20260510133005 | 17 | 337 | 0.0 | 0.0 | 0.00 | 1.30 | 0.89 | 67 | 992.0 |
| 20260510132505 | 16 | 337 | 0.0 | 0.0 | 0.71 | 1.30 | 0.89 | 69 | 993.0 |
| 20260510132006 | 16 | 337 | 0.0 | 0.0 | 0.89 | 1.30 | 0.89 | 68 | 993.0 |
| 20260510131505 | 16 | 337 | 0.0 | 0.0 | 0.89 | 1.30 | 0.89 | 69 | 993.0 |
| 20260510131005 | 15 | 337 | 0.0 | 0.0 | 0.89 | 1.30 | 0.89 | 69 | 994.0 |
| 20260510130505 | 15 | 337 | 0.0 | 0.0 | 0.89 | 1.30 | 0.89 | 67 | 994.0 |
| 20260510130005 | 15 | 337 | 0.0 | 0.0 | 0.89 | 1.30 | 0.89 | 68 | 994.0 |
| 20260510125505 | 15 | 10 | 0.0 | 0.0 | 0.89 | 1.30 | 0.89 | 73 | 993.0 |
| 20260510125005 | 14 | 10 | 0.0 | 0.0 | 0.89 | 1.30 | 0.89 | 72 | 993.0 |
| 20260510124505 | 13 | 77 | 1.6 | 9.7 | 0.89 | 1.30 | 0.89 | 72 | 993.0 |
| 20260510124005 | 13 | 94 | 1.6 | 9.7 | 0.89 | 1.30 | 0.89 | 70 | 994.0 |
| 20260510123505 | 13 | 336 | 4.8 | 12.9 | 0.89 | 1.30 | 0.89 | 69 | 994.0 |
| 20260510123005 | 14 | 34 | 8.0 | 16.1 | 0.89 | 1.30 | 0.89 | 59 | 994.0 |
| 20260510122505 | 16 | 107 | 8.0 | 20.9 | 0.20 | 0.61 | 0.20 | 45 | 991.0 |
| 20260510122005 | 20 | 358 | 1.6 | 19.3 | 0.00 | 0.41 | 0.00 | 28 | 991.0 |
| 20260510121505 | 21 | 134 | 0.0 | 0.0 | 0.00 | 0.41 | 0.00 | 26 | 991.0 |
| 20260510121005 | 21 | 134 | 0.0 | 0.0 | 0.00 | 0.41 | 0.00 | 25 | 992.0 |
| 20260510120505 | 21 | 133 | 0.0 | 0.0 | 0.00 | 0.41 | 0.00 | 24 | 992.0 |
| 20260510120005 | 21 | 133 | 0.0 | 8.0 | 0.00 | 0.41 | 0.00 | 25 | 992.0 |
| 20260510115504 | 21 | 102 | 0.0 | 0.0 | 0.00 | 0.41 | 0.00 | 24 | 992.0 |
| 20260510115005 | 22 | 102 | 0.0 | 0.0 | 0.00 | 0.41 | 0.00 | 23 | 992.0 |
| 20260510114504 | 22 | 102 | 0.0 | 0.0 | 0.00 | 0.41 | 0.00 | 24 | 992.0 |
| 20260510114005 | 22 | 102 | 0.0 | 0.0 | 0.00 | 0.41 | 0.00 | 24 | 991.0 |
| 20260510113505 | 22 | 102 | 0.0 | 0.0 | 0.00 | 0.41 | 0.00 | 24 | 991.0 |
| 20260510113005 | 22 | 103 | 0.0 | 0.0 | 0.00 | 0.41 | 0.00 | 23 | 991.0 |
| 20260510112504 | 22 | 103 | 0.0 | 0.0 | 0.00 | 0.41 | 0.00 | 23 | 992.0 |
| 20260510112005 | 22 | 101 | 0.0 | 0.0 | 0.00 | 0.41 | 0.00 | 23 | 992.0 |
| 20260510111505 | 22 | 322 | 0.0 | 4.8 | 0.00 | 0.41 | 0.00 | 23 | 992.0 |
| 20260510111005 | 22 | 88 | 0.0 | 0.0 | 0.00 | 0.41 | 0.00 | 23 | 992.0 |
| 20260510110504 | 22 | 88 | 0.0 | 0.0 | 0.00 | 0.41 | 0.00 | 23 | 992.0 |
| 20260510110005 | 22 | 298 | 0.0 | 0.0 | 0.00 | 0.41 | 0.00 | 23 | 992.0 |
| 20260510105505 | 22 | 299 | 0.0 | 4.8 | 0.00 | 0.41 | 0.00 | 23 | 992.0 |
| 20260510105004 | 22 | 136 | 0.0 | 0.0 | 0.00 | 0.41 | 0.00 | 23 | 992.0 |
| 20260510104505 | 22 | 136 | 0.0 | 9.7 | 0.00 | 0.41 | 0.00 | 23 | 992.0 |
| 20260510104005 | 22 | 304 | 0.0 | 3.2 | 0.00 | 0.41 | 0.00 | 23 | 992.0 |
| 20260510103505 | 23 | 304 | 0.0 | 3.2 | 0.00 | 0.41 | 0.00 | 22 | 992.0 |
| 20260510103005 | 23 | 313 | 0.0 | 3.2 | 0.00 | 0.41 | 0.00 | 23 | 992.0 |
| 20260510102505 | 22 | 65 | 0.0 | 3.2 | 0.00 | 0.41 | 0.00 | 23 | 992.0 |
| 20260510102004 | 22 | 79 | 0.0 | 4.8 | 0.00 | 0.41 | 0.00 | 24 | 992.0 |
| 20260510101505 | 22 | 286 | 0.0 | 4.8 | 0.00 | 0.41 | 0.00 | 24 | 992.0 |
| 20260510101004 | 21 | 290 | 0.0 | 4.8 | 0.00 | 0.41 | 0.00 | 25 | 992.0 |
| 20260510100505 | 21 | 250 | 0.0 | 4.8 | 0.00 | 0.41 | 0.00 | 25 | 992.0 |
| 20260510100005 | 21 | 320 | 0.0 | 3.2 | 0.00 | 0.41 | 0.00 | 26 | 992.0 |
| 20260510095504 | 21 | 294 | 0.0 | 4.8 | 0.00 | 0.41 | 0.00 | 27 | 993.0 |
| 20260510095005 | 21 | 294 | 0.0 | 4.8 | 0.00 | 0.41 | 0.00 | 26 | 993.0 |
| 20260510094504 | 21 | 293 | 0.0 | 4.8 | 0.00 | 0.41 | 0.00 | 27 | 993.0 |
| 20260510094005 | 21 | 310 | 0.0 | 4.8 | 0.00 | 0.41 | 0.00 | 27 | 993.0 |
| 20260510093505 | 21 | 83 | 0.0 | 3.2 | 0.00 | 0.41 | 0.00 | 27 | 993.0 |
| 20260510093005 | 21 | 245 | 0.0 | 4.8 | 0.00 | 0.41 | 0.00 | 28 | 993.0 |
| 20260510092505 | 21 | 260 | 0.0 | 3.2 | 0.00 | 0.41 | 0.00 | 28 | 993.0 |
| 20260510092005 | 21 | 227 | 0.0 | 0.0 | 0.00 | 0.41 | 0.00 | 29 | 993.0 |
| 20260510091504 | 20 | 274 | 0.0 | 3.2 | 0.00 | 0.41 | 0.00 | 29 | 993.0 |
| 20260510091005 | 20 | 248 | 0.0 | 3.2 | 0.00 | 0.41 | 0.00 | 29 | 993.0 |
| 20260510090505 | 21 | 220 | 0.0 | 4.8 | 0.00 | 0.41 | 0.00 | 27 | 993.0 |
| 20260510090005 | 21 | 293 | 0.0 | 4.8 | 0.00 | 0.41 | 0.00 | 28 | 993.0 |
| 20260510085504 | 20 | 293 | 0.0 | 3.2 | 0.00 | 0.41 | 0.00 | 29 | 993.0 |
| 20260510085005 | 20 | 279 | 0.0 | 4.8 | 0.00 | 0.41 | 0.00 | 28 | 993.0 |
| 20260510084504 | 20 | 105 | 0.0 | 4.8 | 0.00 | 0.41 | 0.00 | 29 | 993.0 |
| 20260510084005 | 20 | 271 | 0.0 | 4.8 | 0.00 | 0.41 | 0.00 | 32 | 993.0 |
| 20260510083505 | 20 | 177 | 1.6 | 4.8 | 0.00 | 0.41 | 0.00 | 32 | 993.0 |
| 20260510083005 | 20 | 134 | 0.0 | 9.7 | 0.00 | 0.41 | 0.00 | 33 | 993.0 |
| 20260510082505 | 20 | 282 | 0.0 | 4.8 | 0.00 | 0.41 | 0.00 | 33 | 993.0 |
| 20260510082005 | 19 | 115 | 1.6 | 9.7 | 0.00 | 0.41 | 0.00 | 34 | 993.0 |
| 20260510081505 | 19 | 250 | 0.0 | 3.2 | 0.00 | 0.41 | 0.00 | 34 | 993.0 |
| 20260510081005 | 18 | 133 | 0.0 | 4.8 | 0.00 | 0.41 | 0.00 | 35 | 993.0 |
| 20260510080505 | 18 | 326 | 0.0 | 0.0 | 0.00 | 0.41 | 0.00 | 36 | 993.0 |
| 20260510080004 | 18 | 82 | 3.2 | 8.0 | 0.00 | 0.41 | 0.00 | 36 | 993.0 |
| 20260510075505 | 18 | 311 | 0.0 | 4.8 | 0.00 | 0.41 | 0.00 | 36 | 993.0 |
| 20260510075004 | 18 | 193 | 0.0 | 3.2 | 0.00 | 0.41 | 0.00 | 37 | 993.0 |
| 20260510074505 | 17 | 162 | 0.0 | 3.2 | 0.00 | 0.41 | 0.00 | 40 | 993.0 |
| 20260510074005 | 17 | 220 | 0.0 | 3.2 | 0.00 | 0.41 | 0.00 | 42 | 992.0 |
| 20260510073504 | 17 | 100 | 0.0 | 0.0 | 0.00 | 0.41 | 0.00 | 45 | 992.0 |
| 20260510073004 | 16 | 100 | 0.0 | 0.0 | 0.00 | 0.41 | 0.00 | 49 | 992.0 |
| 20260510072505 | 16 | 101 | 0.0 | 0.0 | 0.00 | 0.41 | 0.00 | 54 | 993.0 |
| 20260510072005 | 15 | 101 | 0.0 | 0.0 | 0.00 | 0.41 | 0.00 | 59 | 993.0 |
| 20260510071505 | 15 | 100 | 0.0 | 0.0 | 0.00 | 0.41 | 0.00 | 61 | 993.0 |
| 20260510071005 | 15 | 100 | 0.0 | 0.0 | 0.00 | 0.41 | 0.00 | 65 | 993.0 |
| 20260510070505 | 15 | 100 | 0.0 | 0.0 | 0.00 | 0.41 | 0.00 | 66 | 993.0 |
| 20260510070005 | 14 | 101 | 0.0 | 0.0 | 0.00 | 0.41 | 0.00 | 68 | 993.0 |
| 20260510065505 | 14 | 101 | 0.0 | 0.0 | 0.00 | 0.41 | 0.00 | 68 | 993.0 |
| 20260510065005 | 14 | 101 | 0.0 | 0.0 | 0.00 | 0.41 | 0.00 | 72 | 993.0 |
| 20260510064505 | 13 | 100 | 0.0 | 0.0 | 0.00 | 0.41 | 0.00 | 73 | 993.0 |
| 20260510064005 | 13 | 101 | 0.0 | 0.0 | 0.00 | 0.41 | 0.00 | 73 | 992.0 |
| 20260510063504 | 13 | 101 | 0.0 | 0.0 | 0.00 | 0.41 | 0.00 | 73 | 992.0 |
| 20260510063005 | 13 | 101 | 0.0 | 0.0 | 0.00 | 0.41 | 0.00 | 73 | 992.0 |
| 20260510062504 | 13 | 100 | 0.0 | 0.0 | 0.00 | 0.41 | 0.00 | 74 | 992.0 |
| 20260510062004 | 13 | 100 | 0.0 | 0.0 | 0.00 | 0.41 | 0.00 | 74 | 992.0 |
| 20260510061505 | 12 | 100 | 0.0 | 0.0 | 0.00 | 0.41 | 0.00 | 75 | 992.0 |
| 20260510061005 | 12 | 100 | 0.0 | 0.0 | 0.00 | 0.41 | 0.00 | 75 | 992.0 |
| 20260510060504 | 12 | 100 | 0.0 | 0.0 | 0.00 | 0.41 | 0.00 | 75 | 992.0 |
| 20260510060006 | 12 | 100 | 0.0 | 0.0 | 0.00 | 0.41 | 0.00 | 76 | 992.0 |
| 20260510055506 | 12 | 99 | 0.0 | 0.0 | 0.00 | 0.41 | 0.00 | 75 | 992.0 |
| 20260510055005 | 12 | 112 | 0.0 | 0.0 | 0.00 | 0.41 | 0.00 | 76 | 992.0 |
| 20260510054505 | 12 | 105 | 0.0 | 0.0 | 0.00 | 0.41 | 0.00 | 76 | 992.0 |
| 20260510054004 | 12 | 102 | 0.0 | 0.0 | 0.00 | 0.41 | 0.00 | 76 | 992.0 |
| 20260510053504 | 12 | 285 | 0.0 | 0.0 | 0.00 | 0.41 | 0.00 | 75 | 992.0 |
| 20260510053005 | 12 | 286 | 0.0 | 0.0 | 0.00 | 0.41 | 0.00 | 75 | 992.0 |
| 20260510052505 | 12 | 276 | 0.0 | 0.0 | 0.00 | 0.41 | 0.00 | 75 | 992.0 |
| 20260510052005 | 12 | 276 | 0.0 | 0.0 | 0.00 | 0.41 | 0.00 | 74 | 992.0 |
| 20260510051504 | 12 | 276 | 0.0 | 0.0 | 0.00 | 0.41 | 0.00 | 74 | 992.0 |
| 20260510051005 | 12 | 276 | 0.0 | 0.0 | 0.00 | 0.41 | 0.00 | 74 | 992.0 |
| 20260510050504 | 12 | 277 | 0.0 | 0.0 | 0.00 | 0.41 | 0.00 | 73 | 992.0 |
| 20260510050005 | 12 | 313 | 0.0 | 3.2 | 0.00 | 0.41 | 0.00 | 72 | 992.0 |
| 20260510045505 | 13 | 81 | 0.0 | 3.2 | 0.00 | 0.41 | 0.00 | 71 | 992.0 |
| 20260510045005 | 13 | 280 | 0.0 | 4.8 | 0.00 | 0.41 | 0.00 | 71 | 992.0 |
| 20260510044505 | 13 | 325 | 0.0 | 0.0 | 0.00 | 0.41 | 0.00 | 71 | 992.0 |
| 20260510044005 | 13 | 325 | 0.0 | 0.0 | 0.00 | 0.41 | 0.00 | 72 | 991.0 |
| 20260510043504 | 13 | 325 | 0.0 | 0.0 | 0.00 | 0.41 | 0.00 | 73 | 991.0 |
| 20260510043005 | 13 | 325 | 0.0 | 0.0 | 0.00 | 0.41 | 0.00 | 74 | 991.0 |
| 20260510042505 | 13 | 326 | 0.0 | 0.0 | 0.00 | 0.41 | 0.00 | 75 | 991.0 |
| 20260510042005 | 13 | 326 | 0.0 | 0.0 | 0.00 | 0.41 | 0.00 | 77 | 991.0 |
| 20260510041505 | 13 | 326 | 0.0 | 0.0 | 0.00 | 0.41 | 0.00 | 79 | 991.0 |
| 20260510041005 | 13 | 326 | 0.0 | 0.0 | 0.00 | 0.41 | 0.00 | 81 | 991.0 |
| 20260510040505 | 13 | 325 | 0.0 | 0.0 | 0.00 | 0.41 | 0.00 | 81 | 991.0 |
| 20260510040004 | 13 | 325 | 0.0 | 0.0 | 0.00 | 0.41 | 0.00 | 81 | 991.0 |
| 20260510035504 | 13 | 325 | 0.0 | 0.0 | 0.00 | 0.41 | 0.00 | 82 | 991.0 |
| 20260510035005 | 13 | 326 | 0.0 | 0.0 | 0.00 | 0.41 | 0.00 | 82 | 991.0 |
| 20260510034504 | 13 | 325 | 0.0 | 0.0 | 0.00 | 0.41 | 0.00 | 82 | 991.0 |
| 20260510034005 | 13 | 326 | 0.0 | 0.0 | 0.00 | 0.41 | 0.00 | 82 | 991.0 |
| 20260510033504 | 13 | 326 | 0.0 | 0.0 | 0.00 | 0.41 | 0.00 | 82 | 991.0 |
| 20260510033005 | 13 | 325 | 0.0 | 0.0 | 0.00 | 0.41 | 0.00 | 83 | 991.0 |
| 20260510032505 | 13 | 325 | 0.0 | 0.0 | 0.00 | 0.41 | 0.00 | 83 | 991.0 |
| 20260510032005 | 13 | 325 | 0.0 | 0.0 | 0.00 | 0.41 | 0.00 | 83 | 991.0 |
| 20260510031505 | 13 | 326 | 0.0 | 0.0 | 0.00 | 0.41 | 0.00 | 83 | 991.0 |
| 20260510031005 | 13 | 325 | 0.0 | 4.8 | 0.00 | 0.41 | 0.00 | 83 | 991.0 |
| 20260510030505 | 13 | 326 | 0.0 | 4.8 | 0.00 | 0.41 | 0.00 | 84 | 991.0 |
| 20260510030004 | 13 | 326 | 0.0 | 0.0 | 0.00 | 0.41 | 0.00 | 84 | 991.0 |
| 20260510025504 | 13 | 327 | 0.0 | 0.0 | 0.00 | 0.41 | 0.00 | 84 | 991.0 |
| 20260510025005 | 13 | 328 | 0.0 | 0.0 | 0.00 | 0.41 | 0.00 | 84 | 991.0 |
| 20260510024504 | 13 | 328 | 0.0 | 0.0 | 0.00 | 0.41 | 0.00 | 84 | 991.0 |
| 20260510024004 | 13 | 326 | 0.0 | 0.0 | 0.00 | 0.41 | 0.00 | 84 | 991.0 |
| 20260510023504 | 13 | 326 | 0.0 | 0.0 | 0.00 | 0.41 | 0.00 | 84 | 991.0 |
| 20260510023004 | 13 | 327 | 0.0 | 0.0 | 0.00 | 0.41 | 0.00 | 84 | 991.0 |
| 20260510022505 | 14 | 327 | 0.0 | 0.0 | 0.00 | 0.41 | 0.00 | 84 | 991.0 |
| 20260510022005 | 14 | 327 | 0.0 | 0.0 | 0.00 | 0.41 | 0.00 | 84 | 991.0 |
| 20260510021505 | 14 | 327 | 0.0 | 0.0 | 0.00 | 0.41 | 0.00 | 84 | 991.0 |
| 20260510021005 | 14 | 327 | 0.0 | 0.0 | 0.00 | 0.41 | 0.00 | 84 | 991.0 |
| 20260510020505 | 14 | 327 | 0.0 | 0.0 | 0.00 | 0.41 | 0.00 | 85 | 991.0 |
| 20260510020005 | 14 | 326 | 0.0 | 0.0 | 0.00 | 0.41 | 0.00 | 85 | 991.0 |
| 20260510015505 | 14 | 327 | 0.0 | 0.0 | 0.00 | 0.41 | 0.00 | 85 | 991.0 |
| 20260510015005 | 14 | 327 | 0.0 | 0.0 | 0.00 | 0.41 | 0.00 | 85 | 991.0 |
| 20260510014505 | 14 | 327 | 0.0 | 0.0 | 0.00 | 0.41 | 0.00 | 86 | 991.0 |
| 20260510014004 | 14 | 327 | 0.0 | 0.0 | 0.00 | 0.41 | 0.00 | 86 | 991.0 |
| 20260510013505 | 14 | 327 | 0.0 | 0.0 | 0.00 | 0.41 | 0.00 | 86 | 991.0 |
| 20260510013005 | 13 | 327 | 0.0 | 0.0 | 0.00 | 0.41 | 0.00 | 86 | 991.0 |
| 20260510012505 | 13 | 327 | 0.0 | 0.0 | 0.00 | 0.41 | 0.00 | 86 | 992.0 |
| 20260510012005 | 14 | 327 | 0.0 | 0.0 | 0.00 | 0.41 | 0.00 | 86 | 992.0 |
| 20260510011505 | 14 | 327 | 0.0 | 0.0 | 0.00 | 0.41 | 0.00 | 86 | 992.0 |
| 20260510011004 | 14 | 326 | 0.0 | 0.0 | 0.00 | 0.41 | 0.00 | 86 | 992.0 |
| 20260510010505 | 14 | 327 | 0.0 | 0.0 | 0.00 | 0.41 | 0.00 | 86 | 992.0 |
| 20260510010005 | 13 | 327 | 0.0 | 0.0 | 0.00 | 0.41 | 0.00 | 85 | 992.0 |
| 20260510005504 | 14 | 327 | 0.0 | 0.0 | 0.00 | 0.41 | 0.00 | 85 | 992.0 |
| 20260510005004 | 14 | 327 | 0.0 | 0.0 | 0.00 | 0.41 | 0.00 | 85 | 992.0 |
| 20260510004504 | 14 | 326 | 0.0 | 0.0 | 0.00 | 0.41 | 0.00 | 84 | 992.0 |
| 20260510004004 | 14 | 327 | 0.0 | 0.0 | 0.00 | 0.41 | 0.00 | 84 | 992.0 |
| 20260510003505 | 14 | 327 | 0.0 | 0.0 | 0.00 | 0.41 | 0.00 | 84 | 992.0 |
| 20260510003005 | 14 | 327 | 0.0 | 0.0 | 0.00 | 0.41 | 0.00 | 84 | 992.0 |
| 20260510002505 | 14 | 326 | 0.0 | 0.0 | 0.00 | 0.41 | 0.00 | 85 | 992.0 |
| 20260510002004 | 15 | 326 | 0.0 | 0.0 | 0.00 | 0.41 | 0.00 | 85 | 992.0 |
| 20260510001504 | 15 | 327 | 0.0 | 0.0 | 0.00 | 0.41 | 0.00 | 85 | 992.0 |
| 20260510001005 | 15 | 327 | 0.0 | 0.0 | 0.00 | 0.41 | 0.00 | 85 | 992.0 |
| 20260510000504 | 14 | 327 | 0.0 | 0.0 | 0.00 | 0.41 | 0.00 | 84 | 992.0 |
| 20260510000005 | 14 | 326 | 0.0 | 0.0 | 0.00 | 0.41 | 0.00 | 84 | 992.0 |
| 20260509235505 | 14 | 327 | 0.0 | 0.0 | 0.00 | 0.41 | 0.00 | 84 | 992.0 |
| 20260509235005 | 14 | 326 | 0.0 | 0.0 | 0.00 | 0.41 | 0.00 | 84 | 992.0 |
| 20260509234505 | 14 | 327 | 0.0 | 0.0 | 0.00 | 0.41 | 0.00 | 83 | 992.0 |
| 20260509234005 | 14 | 326 | 0.0 | 0.0 | 0.00 | 0.41 | 0.00 | 83 | 992.0 |
| 20260509233505 | 15 | 327 | 0.0 | 0.0 | 0.00 | 0.41 | 0.00 | 83 | 992.0 |
| 20260509233005 | 15 | 327 | 0.0 | 0.0 | 0.00 | 0.41 | 0.00 | 84 | 992.0 |
| 20260509232505 | 15 | 326 | 0.0 | 0.0 | 0.00 | 0.41 | 0.00 | 84 | 992.0 |
| 20260509232004 | 14 | 328 | 0.0 | 0.0 | 0.00 | 0.41 | 0.00 | 84 | 992.0 |
| 20260509231505 | 14 | 326 | 0.0 | 0.0 | 0.00 | 0.41 | 0.00 | 84 | 992.0 |
| 20260509231005 | 14 | 327 | 0.0 | 0.0 | 0.00 | 0.41 | 0.00 | 84 | 992.0 |
| 20260509230504 | 14 | 326 | 0.0 | 0.0 | 0.00 | 0.41 | 0.00 | 84 | 992.0 |
| 20260509230004 | 14 | 327 | 0.0 | 0.0 | 0.00 | 0.41 | 0.00 | 84 | 992.0 |
| 20260509225505 | 14 | 326 | 0.0 | 0.0 | 0.00 | 0.41 | 0.00 | 84 | 992.0 |
| 20260509225004 | 14 | 326 | 0.0 | 0.0 | 0.00 | 0.41 | 0.00 | 84 | 992.0 |
| 20260509224504 | 14 | 327 | 0.0 | 0.0 | 0.00 | 0.41 | 0.00 | 84 | 992.0 |
| 20260509224005 | 14 | 327 | 0.0 | 0.0 | 0.00 | 0.41 | 0.00 | 84 | 992.0 |
| 20260509223504 | 14 | 327 | 0.0 | 0.0 | 0.00 | 0.41 | 0.00 | 84 | 992.0 |
| 20260509223004 | 15 | 326 | 0.0 | 0.0 | 0.00 | 0.41 | 0.00 | 84 | 992.0 |
| 20260509222505 | 15 | 327 | 0.0 | 0.0 | 0.00 | 0.41 | 0.00 | 84 | 992.0 |
| 20260509222004 | 15 | 327 | 0.0 | 0.0 | 0.00 | 0.41 | 0.00 | 84 | 992.0 |
| 20260509221504 | 15 | 327 | 0.0 | 0.0 | 0.00 | 0.41 | 0.00 | 84 | 992.0 |
| 20260509221004 | 15 | 326 | 0.0 | 0.0 | 0.00 | 0.41 | 0.00 | 84 | 992.0 |
| 20260509220504 | 15 | 327 | 0.0 | 0.0 | 0.00 | 0.41 | 0.00 | 85 | 992.0 |
| 20260509220004 | 15 | 327 | 0.0 | 0.0 | 0.00 | 0.41 | 0.00 | 85 | 992.0 |
| 20260509215505 | 15 | 327 | 0.0 | 0.0 | 0.00 | 0.41 | 0.41 | 85 | 992.0 |
| 20260509215004 | 15 | 326 | 0.0 | 0.0 | 0.00 | 0.41 | 0.41 | 85 | 992.0 |
| 20260509214504 | 15 | 326 | 0.0 | 0.0 | 0.00 | 0.41 | 0.41 | 85 | 992.0 |
| 20260509214005 | 15 | 326 | 0.0 | 0.0 | 0.00 | 0.41 | 0.41 | 86 | 992.0 |
| 20260509213504 | 15 | 327 | 0.0 | 0.0 | 0.00 | 0.41 | 0.41 | 86 | 992.0 |
| 20260509213005 | 15 | 327 | 0.0 | 0.0 | 0.00 | 0.41 | 0.41 | 86 | 992.0 |
| 20260509212504 | 15 | 327 | 0.0 | 0.0 | 0.00 | 0.41 | 0.41 | 86 | 992.0 |
| 20260509212004 | 15 | 327 | 0.0 | 0.0 | 0.00 | 0.41 | 0.41 | 86 | 992.0 |
| 20260509211504 | 15 | 327 | 0.0 | 0.0 | 0.00 | 0.41 | 0.41 | 86 | 992.0 |
| 20260509211005 | 15 | 327 | 0.0 | 0.0 | 0.00 | 0.41 | 0.41 | 86 | 991.0 |
| 20260509210504 | 15 | 327 | 0.0 | 0.0 | 0.00 | 0.41 | 0.41 | 85 | 991.0 |
| 20260509210004 | 15 | 327 | 0.0 | 0.0 | 0.00 | 0.41 | 0.41 | 85 | 991.0 |
| 20260509205505 | 15 | 327 | 0.0 | 0.0 | 0.00 | 0.41 | 0.41 | 85 | 991.0 |
| 20260509205005 | 15 | 327 | 0.0 | 0.0 | 0.00 | 0.41 | 0.41 | 84 | 991.0 |
| 20260509204504 | 15 | 327 | 0.0 | 0.0 | 0.00 | 0.41 | 0.41 | 84 | 991.0 |
| 20260509204004 | 15 | 327 | 0.0 | 0.0 | 0.00 | 0.41 | 0.41 | 84 | 991.0 |
| 20260509203504 | 15 | 327 | 0.0 | 0.0 | 0.00 | 0.41 | 0.41 | 84 | 991.0 |
| 20260509203004 | 15 | 326 | 0.0 | 0.0 | 0.00 | 0.41 | 0.41 | 83 | 991.0 |
| 20260509202504 | 15 | 327 | 0.0 | 0.0 | 0.00 | 0.41 | 0.41 | 83 | 991.0 |
| 20260509202004 | 15 | 326 | 0.0 | 0.0 | 0.00 | 0.41 | 0.41 | 82 | 991.0 |
| 20260509201504 | 15 | 327 | 0.0 | 0.0 | 0.00 | 0.41 | 0.41 | 82 | 991.0 |
| 20260509201005 | 15 | 326 | 0.0 | 0.0 | 0.00 | 0.41 | 0.41 | 81 | 991.0 |
| 20260509200504 | 15 | 327 | 0.0 | 0.0 | 0.00 | 0.41 | 0.41 | 81 | 991.0 |
| 20260509200004 | 15 | 326 | 0.0 | 0.0 | 0.00 | 0.41 | 0.41 | 81 | 991.0 |
| 20260509195504 | 15 | 326 | 0.0 | 0.0 | 0.00 | 0.41 | 0.41 | 82 | 991.0 |
| 20260509195004 | 15 | 326 | 0.0 | 0.0 | 0.00 | 0.41 | 0.41 | 82 | 991.0 |
| 20260509194504 | 15 | 326 | 0.0 | 0.0 | 0.00 | 0.41 | 0.41 | 82 | 991.0 |
| 20260509194004 | 15 | 326 | 0.0 | 0.0 | 0.00 | 0.41 | 0.41 | 83 | 991.0 |
| 20260509193505 | 15 | 327 | 0.0 | 0.0 | 0.00 | 0.41 | 0.41 | 82 | 991.0 |
| 20260509193005 | 15 | 327 | 0.0 | 0.0 | 0.00 | 0.41 | 0.41 | 82 | 991.0 |
| 20260509192504 | 15 | 327 | 0.0 | 0.0 | 0.00 | 0.41 | 0.41 | 81 | 991.0 |
| 20260509192004 | 15 | 327 | 0.0 | 0.0 | 0.00 | 0.41 | 0.41 | 80 | 991.0 |
| 20260509191504 | 15 | 328 | 0.0 | 0.0 | 0.00 | 0.41 | 0.41 | 79 | 991.0 |
| 20260509191005 | 15 | 327 | 0.0 | 3.2 | 0.00 | 0.41 | 0.41 | 78 | 990.0 |
| 20260509190505 | 16 | 326 | 0.0 | 0.0 | 0.00 | 0.41 | 0.41 | 78 | 990.0 |
| 20260509190006 | 16 | 327 | 0.0 | 0.0 | 0.00 | 0.41 | 0.41 | 78 | 990.0 |
| 20260509185504 | 16 | 327 | 0.0 | 0.0 | 0.00 | 0.41 | 0.41 | 78 | 991.0 |
| 20260509185004 | 16 | 327 | 0.0 | 0.0 | 0.00 | 0.41 | 0.41 | 79 | 991.0 |
| 20260509184504 | 16 | 327 | 0.0 | 0.0 | 0.00 | 0.41 | 0.41 | 80 | 991.0 |
| 20260509184004 | 16 | 327 | 0.0 | 0.0 | 0.00 | 0.41 | 0.41 | 80 | 991.0 |
| 20260509183504 | 16 | 327 | 0.0 | 0.0 | 0.00 | 0.41 | 0.41 | 80 | 991.0 |
| 20260509183004 | 16 | 327 | 0.0 | 0.0 | 0.00 | 0.41 | 0.41 | 80 | 991.0 |
| 20260509182505 | 16 | 327 | 0.0 | 0.0 | 0.00 | 0.41 | 0.41 | 80 | 991.0 |
| 20260509182004 | 16 | 327 | 0.0 | 0.0 | 0.00 | 0.41 | 0.41 | 79 | 991.0 |
| 20260509181504 | 16 | 326 | 0.0 | 0.0 | 0.41 | 0.41 | 0.41 | 78 | 991.0 |
| 20260509181004 | 16 | 327 | 0.0 | 0.0 | 0.41 | 0.41 | 0.41 | 77 | 991.0 |
| 20260509180504 | 16 | 327 | 0.0 | 0.0 | 0.41 | 0.41 | 0.41 | 77 | 991.0 |
| 20260509180004 | 16 | 327 | 0.0 | 0.0 | 0.41 | 0.41 | 0.41 | 77 | 991.0 |
| 20260509175504 | 16 | 326 | 0.0 | 0.0 | 0.41 | 0.41 | 0.41 | 75 | 991.0 |
| 20260509175004 | 16 | 327 | 0.0 | 0.0 | 0.41 | 0.41 | 0.41 | 75 | 991.0 |
| 20260509174505 | 16 | 326 | 0.0 | 0.0 | 0.41 | 0.41 | 0.41 | 74 | 991.0 |
| 20260509174004 | 16 | 326 | 0.0 | 0.0 | 0.41 | 0.41 | 0.41 | 73 | 991.0 |
| 20260509173504 | 16 | 336 | 0.0 | 0.0 | 0.41 | 0.41 | 0.41 | 73 | 991.0 |
| 20260509173004 | 16 | 346 | 0.0 | 0.0 | 0.41 | 0.41 | 0.41 | 72 | 991.0 |
| 20260509172505 | 16 | 1 | 0.0 | 0.0 | 0.41 | 0.41 | 0.41 | 70 | 991.0 |
| 20260509172004 | 16 | 37 | 0.0 | 0.0 | 0.41 | 0.41 | 0.41 | 68 | 991.0 |
| 20260509171504 | 16 | 77 | 0.0 | 0.0 | 0.00 | 0.00 | 0.00 | 61 | 991.0 |
| 20260509171004 | 17 | 79 | 0.0 | 4.8 | 0.00 | 0.00 | 0.00 | 54 | 993.0 |
| 20260509170505 | 17 | 297 | 0.0 | 8.0 | 0.00 | 0.00 | 0.00 | 52 | 993.0 |
| 20260509170004 | 18 | 279 | 3.2 | 9.7 | 0.00 | 0.00 | 0.00 | 45 | 993.0 |
| 20260509165504 | 19 | 275 | 0.0 | 4.8 | 0.00 | 0.00 | 0.00 | 35 | 990.0 |
| 20260509165004 | 19 | 31 | 0.0 | 0.0 | 0.00 | 0.00 | 0.00 | 33 | 990.0 |